Regional Weather Roundup
Issued by NWS

Home | Current Version | Previous Version | Text Only | Print | Product List | Glossary Off
Versions: 1 2 3 4 5 6 7 8 9 10 11 12 13 14 15 16 17 18 19 20 21 22 23 24 25 26 27 28 29 30 31 32 33 34 35 36 37 38 39 40 41 42 43 44 45 46 47 48 49 50

277
ASUS43 KOAX 060602
RWRNE

WEATHER ROUNDUP FOR NEBRASKA
NATIONAL WEATHER SERVICE OMAHA NE
1200 AM CST TUE DEC 06 2016

NOTES: SATELLITE DATA IS BEING USED TO AUGMENT CLOUD COVER ABOVE
       12000 FEET.
       "FAIR" INDICATES FEW OR NO CLOUDS BELOW 12,000 FEET WITH NO
       SIGNIFICANT WEATHER AND/OR OBSTRUCTIONS TO VISIBILITY.

  * THESE STATIONS DO NOT REPORT WEATHER SUCH AS RAIN...SNOW OR FOG.

NEZ001>004-019>022-054>056-060700-
NEBRASKA PANHANDLE

CITY           SKY/WX    TMP DP  RH WIND       PRES   REMARKS
SCOTTSBLUFF    CLEAR     16   5  62 NW17      29.96R WCI   0
6HR MIN TEMP:  15; 6HR MAX TEMP:  23;

ALLIANCE       CLEAR     14   6  70 NW16      29.91R WCI  -2
6HR MIN TEMP:  11; 6HR MAX TEMP:  23;

CHADRON        CLEAR     17   6  62 W18G28    29.97R WCI   1
6HR MIN TEMP:  15; 6HR MAX TEMP:  24;

KIMBALL        CLEAR     17  10  74 NW24G30   29.90S WCI  -2
SIDNEY         PTCLDY    18   8  65 NW12      29.94R WCI   5
6HR MIN TEMP:  18; 6HR MAX TEMP:  26;

$$

NEZ057>060-069>072-079>082-060700-
SOUTHWEST NEBRASKA

CITY           SKY/WX    TMP DP  RH WIND       PRES   REMARKS
NORTH PLATTE   MOCLDY    24  16  71 NW10      29.94S WCI  14
6HR MIN TEMP:  23; 6HR MAX TEMP:  32;

IMPERIAL       CLEAR     23  10  57 NW15      29.97R WCI  10
6HR MIN TEMP:  23; 6HR MAX TEMP:  35;

LEXINGTON      CLOUDY    27  16  62 NW13      29.95R WCI  16
MCCOOK         CLOUDY    28  16  60 NW14      29.97R WCI  17
6HR MIN TEMP:  28; 6HR MAX TEMP:  46;

$$

NEZ005>010-023>029-035>040-094-060700-
NORTH CENTRAL NEBRASKA

CITY           SKY/WX    TMP DP  RH WIND       PRES   REMARKS
VALENTINE      CLEAR     18   7  62 NW16G22   29.93R WCI   3
6HR MIN TEMP:  17; 6HR MAX TEMP:  24;

AINSWORTH      CLEAR     19  11  71 NW18G25   29.91R WCI   4
BROKEN BOW     MOCLDY    25  14  63 NW13G24   29.92R WCI  14
6HR MIN TEMP:  25; 6HR MAX TEMP:  32;

ORD            MOCLDY    26  11  52 NW21G29   29.91R WCI  12
6HR MIN TEMP:  26; 6HR MAX TEMP:  37;

$$

NEZ041-046>049-061>064-073>077-083>087-060700-
SOUTH CENTRAL NEBRASKA

CITY           SKY/WX    TMP DP  RH WIND       PRES   REMARKS
GRAND ISLAND   CLOUDY    29  18  63 N17G25    29.90F WCI  17
6HR MIN TEMP:  29; 6HR MAX TEMP:  45;

AURORA         CLOUDY    29  17  59 N25G31    29.90R WCI  15
HASTINGS       CLOUDY    30  18  60 NW22      29.92R WCI  17
6HR MIN TEMP:  30; 6HR MAX TEMP:  46;

HOLDREGE       CLOUDY    28  14  55 N15G29    29.93R WCI  16
KEARNEY *      CLOUDY    28  12  50 N16       29.92R WCI  17
YORK           CLOUDY    30  19  64 N23G32    29.89R WCI  17
$$

NEZ011>018-030>034-042>045-060700-
NORTHEAST NEBRASKA

CITY           SKY/WX    TMP DP  RH WIND       PRES   REMARKS
NORFOLK        CLOUDY    28  15  58 NW22G28   29.88R WCI  14
6HR MIN TEMP:  28; 6HR MAX TEMP:  39;

ALBION         MOCLDY    28  17  63 NW17      29.89F WCI  15
BLAIR          CLOUDY    32  27  81 NW16      29.85R WCI  22
FREMONT        CLOUDY    31  22  70 NW20G32   29.89R WCI  19
TEKAMAH        CLOUDY    31  23  72 NW24      29.89R WCI  17
6HR MIN TEMP:  31; 6HR MAX TEMP:  45; 6HR PCP: TRACE;

$$

NEZ050>053-065>068-078-088>093-060700-
SOUTHEAST NEBRASKA

CITY           SKY/WX    TMP DP  RH WIND       PRES   REMARKS
LINCOLN        CLOUDY    32  21  64 N22G32    29.90R WCI  19
6HR MIN TEMP:  32; 6HR MAX TEMP:  46; 6HR PCP: TRACE;

OMAHA EPPLEY   CLOUDY    34  27  75 N24G30    29.85R WCI  21
6HR MIN TEMP:  34; 6HR MAX TEMP:  46; 6HR PCP:  0.03;

BEATRICE       CLOUDY    34  26  71 N24G33    29.88R WCI  21
FALLS CITY     CLOUDY    40  36  86 NW17      29.81R WCI  31
6HR MIN TEMP:  36; 6HR MAX TEMP:  40;

NEBRASKA CITY  CLOUDY    35  29  79 N21G26    29.85R WCI  24
$$

NEZ044-045-051>053-067-060700-
OMAHA AREA

CITY           SKY/WX    TMP DP  RH WIND       PRES   REMARKS
OMAHA EPPLEY   CLOUDY    34  27  75 N24G30    29.85R WCI  21
6HR MIN TEMP:  34; 6HR MAX TEMP:  46; 6HR PCP:  0.03;

BLAIR          CLOUDY    32  27  81 NW16      29.85R WCI  22
FREMONT        CLOUDY    31  22  70 NW20G32   29.89R WCI  19
OFFUTT AFB     FLURRIES  34  32  92 NW14G28   29.86R WCI  24
WAHOO          CLOUDY    32  24  72 NW20      29.87S WCI  20
$$




USA.gov is the U.S. government's official web portal to all federal, state and local government web resources and services.